| time (UTC) | temp F | wind direction | speed knots | gust knots | rain 1hr in | rain 24hr in | rain mn in | humidity % | barometer mb |
| 20260506211516 | 66 | 23 | 4.3 | 9.6 | 0.00 | 0.00 | 0.00 | 65 | 1012.9 |
| 20260506210516 | 67 | 0 | 3.5 | 7.8 | 0.00 | 0.00 | 0.00 | 65 | 1012.9 |
| 20260506205536 | 67 | 23 | 4.3 | 9.6 | 0.00 | 0.00 | 0.00 | 65 | 1013.0 |
| 20260506204516 | 66 | 68 | 3.5 | 8.7 | 0.00 | 0.00 | 0.00 | 66 | 1013.2 |
| 20260506203516 | 65 | 45 | 5.2 | 10.4 | 0.00 | 0.00 | 0.00 | 66 | 1013.4 |
| 20260506202516 | 65 | 68 | 3.5 | 7.8 | 0.00 | 0.00 | 0.00 | 66 | 1013.5 |
| 20260506201516 | 65 | 45 | 3.5 | 7.8 | 0.00 | 0.00 | 0.00 | 66 | 1013.5 |
| 20260506200516 | 65 | 68 | 2.6 | 7.8 | 0.00 | 0.00 | 0.00 | 67 | 1013.4 |
| 20260506195536 | 66 | 90 | 5.2 | 9.6 | 0.00 | 0.00 | 0.00 | 64 | 1013.6 |
| 20260506194516 | 65 | 0 | 2.6 | 6.1 | 0.00 | 0.00 | 0.00 | 65 | 1013.6 |
| 20260506193516 | 65 | 23 | 3.5 | 8.7 | 0.00 | 0.00 | 0.00 | 67 | 1013.5 |
| 20260506192515 | 65 | 0 | 3.5 | 7.8 | 0.00 | 0.00 | 0.00 | 67 | 1013.0 |
| 20260506191516 | 64 | 23 | 5.2 | 10.4 | 0.00 | 0.00 | 0.00 | 67 | 1012.9 |
| 20260506190516 | 64 | 68 | 6.1 | 12.2 | 0.00 | 0.00 | 0.00 | 66 | 1012.8 |
| 20260506185516 | 64 | 293 | 5.2 | 8.7 | 0.00 | 0.00 | 0.00 | 68 | 1013.1 |
| 20260506184516 | 64 | 23 | 2.6 | 8.7 | 0.00 | 0.00 | 0.00 | 69 | 1013.2 |
| 20260506183535 | 63 | 45 | 5.2 | 9.6 | 0.00 | 0.00 | 0.00 | 68 | 1013.3 |
| 20260506182515 | 62 | 45 | 6.1 | 11.3 | 0.00 | 0.00 | 0.00 | 69 | 1013.3 |
| 20260506181535 | 61 | 0 | 6.1 | 10.4 | 0.00 | 0.00 | 0.00 | 71 | 1013.3 |
| 20260506180515 | 61 | 23 | 5.2 | 10.4 | 0.00 | 0.00 | 0.00 | 68 | 1013.2 |
| 20260506175516 | 62 | 45 | 5.2 | 11.3 | 0.00 | 0.00 | 0.00 | 70 | 1013.3 |
| 20260506174515 | 61 | 45 | 7.0 | 13.0 | 0.00 | 0.00 | 0.00 | 69 | 1013.3 |
| 20260506173515 | 61 | 23 | 6.1 | 13.0 | 0.00 | 0.00 | 0.00 | 69 | 1013.6 |
| 20260506172536 | 61 | 45 | 6.1 | 13.9 | 0.00 | 0.00 | 0.00 | 70 | 1013.7 |
| 20260506171535 | 60 | 23 | 4.3 | 9.6 | 0.00 | 0.00 | 0.00 | 71 | 1013.6 |
| 20260506170515 | 59 | 45 | 7.0 | 13.0 | 0.00 | 0.00 | 0.00 | 72 | 1013.7 |
| 20260506165515 | 58 | 45 | 7.8 | 14.8 | 0.00 | 0.00 | 0.00 | 73 | 1013.6 |
| 20260506164515 | 57 | 45 | 6.1 | 13.9 | 0.00 | 0.00 | 0.00 | 73 | 1013.7 |
| 20260506163517 | 56 | 23 | 5.2 | 11.3 | 0.00 | 0.00 | 0.00 | 74 | 1013.6 |
| 20260506162517 | 55 | 45 | 5.2 | 10.4 | 0.00 | 0.00 | 0.00 | 75 | 1013.6 |
| 20260506161517 | 55 | 45 | 6.1 | 11.3 | 0.00 | 0.00 | 0.00 | 75 | 1013.7 |
| 20260506160517 | 54 | 45 | 4.3 | 8.7 | 0.00 | 0.00 | 0.00 | 77 | 1013.3 |
| 20260506155517 | 54 | 45 | 5.2 | 10.4 | 0.00 | 0.00 | 0.00 | 76 | 1013.4 |
| 20260506154515 | 54 | 23 | 3.5 | 7.8 | 0.00 | 0.00 | 0.00 | 77 | 1014.1 |
| 20260506153517 | 54 | 23 | 3.5 | 7.8 | 0.00 | 0.00 | 0.00 | 77 | 1014.6 |
| 20260506152517 | 53 | 23 | 2.6 | 5.2 | 0.00 | 0.00 | 0.00 | 77 | 1014.8 |
| 20260506151517 | 53 | 68 | 0.9 | 2.6 | 0.00 | 0.00 | 0.00 | 77 | 1015.5 |
| 20260506150517 | 53 | 0 | 3.5 | 9.6 | 0.00 | 0.00 | 0.00 | 78 | 1014.3 |
| 20260506145517 | 53 | 23 | 3.5 | 7.8 | 0.00 | 0.00 | 0.00 | 79 | 1013.8 |
| 20260506144517 | 53 | 23 | 4.3 | 8.7 | 0.00 | 0.00 | 0.00 | 79 | 1014.2 |
| 20260506143557 | 53 | 23 | 3.5 | 8.7 | 0.00 | 0.00 | 0.00 | 80 | 1013.7 |
| 20260506142517 | 52 | 45 | 2.6 | 7.8 | 0.00 | 0.00 | 0.00 | 80 | 1013.8 |
| 20260506141557 | 52 | 23 | 2.6 | 6.1 | 0.00 | 0.00 | 0.00 | 81 | 1013.7 |
| 20260506140516 | 52 | 45 | 2.6 | 8.7 | 0.00 | 0.00 | 0.00 | 82 | 1014.0 |
| 20260506135516 | 51 | 0 | 3.5 | 8.7 | 0.00 | 0.00 | 0.00 | 83 | 1013.6 |
| 20260506134516 | 51 | 23 | 4.3 | 7.8 | 0.00 | 0.00 | 0.00 | 84 | 1013.0 |
| 20260506133516 | 51 | 0 | 2.6 | 6.1 | 0.00 | 0.00 | 0.00 | 85 | 1013.1 |
| 20260506132517 | 50 | 45 | 2.6 | 7.8 | 0.00 | 0.00 | 0.00 | 87 | 1012.9 |
| 20260506131536 | 50 | 23 | 2.6 | 7.8 | 0.00 | 0.00 | 0.00 | 88 | 1012.8 |
| 20260506130516 | 50 | 23 | 2.6 | 7.0 | 0.00 | 0.00 | 0.00 | 88 | 1012.7 |
| 20260506125516 | 50 | 23 | 3.5 | 7.0 | 0.00 | 0.00 | 0.00 | 88 | 1012.4 |
| 20260506124517 | 50 | 23 | 2.6 | 8.7 | 0.00 | 0.00 | 0.00 | 88 | 1012.4 |
| 20260506123516 | 50 | 23 | 1.7 | 4.3 | 0.00 | 0.00 | 0.00 | 88 | 1012.2 |
| 20260506122536 | 50 | 23 | 1.7 | 7.0 | 0.00 | 0.00 | 0.00 | 88 | 1012.1 |
| 20260506121516 | 50 | 0 | 0.9 | 3.5 | 0.00 | 0.00 | 0.00 | 87 | 1012.3 |
| 20260506120516 | 50 | 23 | 3.5 | 9.6 | 0.00 | 0.00 | 0.00 | 87 | 1012.2 |
| 20260506115516 | 50 | 0 | 1.7 | 7.0 | 0.00 | 0.00 | 0.00 | 87 | 1012.3 |
| 20260506114516 | 50 | 0 | 1.7 | 5.2 | 0.00 | 0.00 | 0.00 | 87 | 1012.4 |
| 20260506113516 | 50 | 0 | 2.6 | 7.0 | 0.00 | 0.00 | 0.00 | 87 | 1012.0 |
| 20260506112516 | 50 | 0 | 1.7 | 7.8 | 0.00 | 0.00 | 0.00 | 87 | 1011.7 |
| 20260506111516 | 50 | 23 | 1.7 | 5.2 | 0.00 | 0.00 | 0.00 | 86 | 1011.6 |
| 20260506110536 | 50 | 293 | 2.6 | 7.8 | 0.00 | 0.00 | 0.00 | 86 | 1011.4 |
| 20260506105516 | 51 | 23 | 4.3 | 8.7 | 0.00 | 0.00 | 0.00 | 85 | 1011.5 |
| 20260506104536 | 51 | 0 | 3.5 | 8.7 | 0.00 | 0.00 | 0.00 | 83 | 1011.3 |
| 20260506103516 | 52 | 338 | 3.5 | 9.6 | 0.00 | 0.00 | 0.00 | 82 | 1011.3 |
| 20260506102556 | 52 | 23 | 2.6 | 7.8 | 0.00 | 0.00 | 0.00 | 80 | 1011.3 |
| 20260506101516 | 53 | 23 | 2.6 | 7.8 | 0.00 | 0.00 | 0.00 | 79 | 1011.3 |
| 20260506100516 | 53 | 338 | 1.7 | 6.1 | 0.00 | 0.00 | 0.00 | 78 | 1011.0 |
| 20260506095536 | 53 | 293 | 2.6 | 8.7 | 0.00 | 0.00 | 0.00 | 78 | 1011.1 |
| 20260506094516 | 54 | 23 | 2.6 | 7.8 | 0.00 | 0.00 | 0.00 | 77 | 1010.8 |
| 20260506093516 | 54 | 0 | 1.7 | 6.1 | 0.00 | 0.00 | 0.00 | 77 | 1010.6 |
| 20260506092536 | 54 | 0 | 3.5 | 7.8 | 0.00 | 0.00 | 0.00 | 76 | 1010.2 |
| 20260506091516 | 54 | 23 | 2.6 | 7.0 | 0.00 | 0.00 | 0.00 | 77 | 1010.2 |
| 20260506090516 | 54 | 0 | 2.6 | 6.1 | 0.00 | 0.00 | 0.00 | 77 | 1010.1 |
| 20260506085516 | 54 | 23 | 3.5 | 8.7 | 0.00 | 0.00 | 0.00 | 76 | 1009.9 |
| 20260506084515 | 54 | 23 | 1.7 | 3.5 | 0.00 | 0.00 | 0.00 | 77 | 1009.8 |
| 20260506083515 | 55 | 293 | 0.9 | 3.5 | 0.00 | 0.00 | 0.00 | 78 | 1009.8 |
| 20260506082535 | 55 | 23 | 2.6 | 7.8 | 0.00 | 0.00 | 0.00 | 77 | 1009.9 |
| 20260506081515 | 55 | 23 | 3.5 | 7.8 | 0.00 | 0.00 | 0.00 | 77 | 1009.7 |
| 20260506080515 | 55 | 23 | 1.7 | 6.1 | 0.00 | 0.00 | 0.00 | 77 | 1009.9 |
| 20260506073515 | 55 | 338 | 1.7 | 4.3 | 0.00 | 0.00 | 0.00 | 79 | 1009.9 |
| 20260506072535 | 55 | 315 | 0.9 | 4.3 | 0.00 | 0.00 | 0.00 | 79 | 1010.0 |
| 20260506071515 | 55 | 45 | 2.6 | 5.2 | 0.00 | 0.00 | 0.00 | 78 | 1009.6 |
| 20260506070515 | 55 | 45 | 1.7 | 5.2 | 0.00 | 0.00 | 0.00 | 78 | 1009.7 |
| 20260506062517 | 55 | 23 | 3.5 | 8.7 | 0.00 | 0.00 | 0.00 | 78 | 1009.2 |
| 20260506061537 | 56 | 45 | 2.6 | 6.1 | 0.00 | 0.00 | 0.00 | 78 | 1009.4 |
| 20260506060517 | 56 | 23 | 3.5 | 7.8 | 0.00 | 0.00 | 0.00 | 78 | 1009.2 |
| 20260506050518 | 56 | 23 | 4.3 | 10.4 | 0.00 | 0.00 | 0.00 | 79 | 1009.3 |
| 20260506044516 | 57 | 23 | 2.6 | 7.0 | 0.00 | 0.00 | 0.00 | 80 | 1009.3 |
| 20260506043515 | 57 | 23 | 3.5 | 8.7 | 0.00 | 0.00 | 0.00 | 81 | 1009.3 |
| 20260506042515 | 57 | 23 | 2.6 | 5.2 | 0.00 | 0.00 | 0.00 | 81 | 1009.3 |
| 20260506041515 | 57 | 23 | 1.7 | 4.3 | 0.00 | 0.00 | 0.00 | 81 | 1009.2 |
| 20260506040515 | 58 | 23 | 2.6 | 7.0 | 0.00 | 0.00 | 0.00 | 81 | 1009.2 |
| 20260506035516 | 58 | 23 | 3.5 | 7.8 | 0.00 | 0.00 | 0.00 | 81 | 1009.1 |
| 20260506034535 | 58 | 23 | 3.5 | 7.8 | 0.00 | 0.00 | 0.00 | 81 | 1008.9 |
| 20260506033535 | 58 | 0 | 3.5 | 10.4 | 0.00 | 0.00 | 0.00 | 81 | 1009.0 |
| 20260506032515 | 59 | 0 | 2.6 | 9.6 | 0.00 | 0.00 | 0.00 | 80 | 1008.9 |
| 20260506031517 | 59 | 23 | 4.3 | 10.4 | 0.00 | 0.00 | 0.00 | 80 | 1008.5 |
| 20260506030517 | 59 | 23 | 5.2 | 11.3 | 0.00 | 0.00 | 0.00 | 80 | 1008.3 |
| 20260506025517 | 60 | 23 | 6.1 | 11.3 | 0.00 | 0.00 | 0.00 | 80 | 1008.2 |
| 20260506024517 | 60 | 23 | 5.2 | 12.2 | 0.00 | 0.00 | 0.00 | 79 | 1008.1 |
| 20260506023517 | 61 | 23 | 4.3 | 7.8 | 0.00 | 0.00 | 0.00 | 79 | 1008.2 |
| 20260506022517 | 61 | 0 | 3.5 | 8.7 | 0.00 | 0.00 | 0.00 | 79 | 1007.7 |
| 20260506021517 | 62 | 23 | 3.5 | 7.8 | 0.00 | 0.00 | 0.00 | 78 | 1007.5 |
| 20260506020517 | 62 | 23 | 2.6 | 7.0 | 0.00 | 0.00 | 0.00 | 78 | 1007.0 |
| 20260506015517 | 62 | 23 | 2.6 | 8.7 | 0.00 | 0.00 | 0.00 | 78 | 1006.6 |
| 20260506014517 | 63 | 23 | 2.6 | 7.0 | 0.00 | 0.00 | 0.00 | 77 | 1006.1 |
| 20260506013517 | 63 | 0 | 3.5 | 8.7 | 0.00 | 0.00 | 0.00 | 77 | 1005.6 |
| 20260506012517 | 64 | 0 | 2.6 | 7.0 | 0.00 | 0.00 | 0.00 | 76 | 1005.2 |
| 20260506011517 | 64 | 0 | 3.5 | 7.8 | 0.00 | 0.00 | 0.00 | 76 | 1005.5 |
| 20260506010537 | 65 | 23 | 2.6 | 6.1 | 0.00 | 0.00 | 0.00 | 75 | 1004.9 |
| 20260506005517 | 66 | 23 | 2.6 | 7.8 | 0.00 | 0.00 | 0.00 | 75 | 1005.0 |
| 20260506004517 | 66 | 0 | 1.7 | 5.2 | 0.00 | 0.00 | 0.00 | 75 | 1004.9 |
| 20260506003516 | 66 | 293 | 3.5 | 8.7 | 0.00 | 0.00 | 0.00 | 75 | 1004.9 |
| 20260506002518 | 66 | 293 | 2.6 | 8.7 | 0.00 | 0.00 | 0.00 | 74 | 1005.1 |
| 20260506001516 | 67 | 270 | 1.7 | 4.3 | 0.00 | 0.00 | 0.00 | 74 | 1004.8 |
| 20260506000517 | 67 | 315 | 2.6 | 7.8 | 0.00 | 0.00 | 0.00 | 73 | 1004.8 |
| 20260505235516 | 67 | 293 | 2.6 | 8.7 | 0.00 | 0.00 | 0.00 | 73 | 1004.8 |
| 20260505234517 | 68 | 293 | 5.2 | 12.2 | 0.00 | 0.00 | 0.00 | 72 | 1004.9 |
| 20260505233516 | 69 | 315 | 3.5 | 7.8 | 0.00 | 0.00 | 0.00 | 71 | 1004.7 |
| 20260505232516 | 70 | 293 | 5.2 | 13.9 | 0.00 | 0.00 | 0.00 | 72 | 1004.9 |
| 20260505231517 | 71 | 293 | 3.5 | 9.6 | 0.00 | 0.00 | 0.00 | 71 | 1004.5 |
| 20260505230556 | 72 | 293 | 3.5 | 8.7 | 0.00 | 0.00 | 0.00 | 70 | 1004.4 |
| 20260505225516 | 73 | 293 | 7.0 | 10.4 | 0.00 | 0.00 | 0.00 | 70 | 1004.6 |
| 20260505224517 | 73 | 293 | 7.0 | 13.0 | 0.00 | 0.00 | 0.00 | 69 | 1004.5 |
| 20260505223516 | 74 | 293 | 8.7 | 13.0 | 0.00 | 0.00 | 0.00 | 69 | 1004.4 |
| 20260505222516 | 75 | 293 | 8.7 | 13.9 | 0.00 | 0.00 | 0.00 | 68 | 1004.3 |
| 20260505221516 | 76 | 293 | 6.1 | 11.3 | 0.00 | 0.00 | 0.00 | 67 | 1004.2 |
| 20260505220516 | 77 | 293 | 8.7 | 13.9 | 0.00 | 0.00 | 0.00 | 65 | 1004.1 |
| 20260505215516 | 78 | 293 | 4.3 | 11.3 | 0.00 | 0.00 | 0.00 | 65 | 1003.9 |
| 20260505214516 | 79 | 293 | 8.7 | 13.0 | 0.00 | 0.00 | 0.00 | 64 | 1003.9 |
| 20260505213516 | 79 | 293 | 5.2 | 10.4 | 0.00 | 0.00 | 0.00 | 67 | 1003.7 |
| 20260505212516 | 80 | 293 | 7.8 | 11.3 | 0.00 | 0.00 | 0.00 | 63 | 1004.0 |